GFSFLT2_prec_precacc_084.txt.gz
Total_Precipitation_Accumulation
8.36 7.58 5.71 5.02 3.66 2.81 3.96 5.42 6.09 5.61 3.90 3.42 3.39 2.74 2.35 2.12 1.81 1.51 1.41 0.92 0.52 0.48 0.05 0.01 0.00 0.00 0.00 0.02 0.04 0.01 0.06 0.10
7.63 8.94 8.46 3.91 2.83 2.27 2.98 4.40 5.94 6.80 5.91 4.75 3.29 2.18 2.33 3.01 2.90 2.22 1.71 1.21 0.78 0.54 0.43 0.17 0.06 0.04 0.02 0.01 0.00 0.00 0.00 0.03
4.89 7.54 6.16 3.45 1.95 1.51 1.83 3.59 3.55 3.13 3.16 4.03 3.09 2.18 1.71 1.33 1.69 1.67 1.39 1.26 0.93 0.70 0.46 0.24 0.18 0.16 0.11 0.05 0.00 0.00 0.00 0.00
1.91 3.61 4.19 2.92 1.75 1.42 1.13 1.80 2.75 3.15 1.80 1.93 1.89 1.88 1.63 1.04 0.88 0.96 1.17 0.93 0.75 0.69 0.32 0.26 0.24 0.09 0.05 0.05 0.01 0.00 0.00 0.00
0.97 1.49 1.80 2.25 1.81 1.48 1.36 1.27 1.34 2.96 1.97 0.97 1.07 1.25 1.07 0.89 0.50 0.65 0.87 0.86 0.45 0.31 0.19 0.18 0.21 0.07 0.01 0.03 0.00 0.00 0.00 0.00
0.58 0.60 0.67 0.95 1.29 1.25 0.93 1.04 1.12 1.40 1.78 0.86 0.65 0.89 0.47 0.49 0.27 0.29 0.40 0.45 0.37 0.26 0.15 0.21 0.20 0.15 0.01 0.00 0.00 0.00 0.00 0.00
0.32 0.36 0.30 0.47 0.67 0.93 0.91 0.65 0.76 0.86 1.20 0.89 0.46 0.44 0.29 0.30 0.16 0.16 0.16 0.22 0.43 0.43 0.31 0.26 0.23 0.13 0.01 0.00 0.00 0.00 0.00 0.00
0.28 0.34 0.29 0.39 0.69 0.79 0.94 0.86 0.67 0.77 0.74 0.68 0.44 0.37 0.29 0.21 0.13 0.15 0.10 0.18 0.38 0.49 0.46 0.38 0.27 0.10 0.04 0.00 0.00 0.00 0.00 0.00
0.28 0.33 0.44 0.43 0.46 0.54 0.83 0.91 0.74 0.63 0.51 0.53 0.47 0.39 0.28 0.18 0.11 0.12 0.14 0.15 0.32 0.45 0.56 0.62 0.38 0.16 0.02 0.00 0.00 0.00 0.00 0.00
0.20 0.23 0.65 0.53 0.46 0.42 0.58 0.84 0.86 0.65 0.51 0.51 0.41 0.28 0.26 0.19 0.12 0.11 0.14 0.20 0.36 0.41 0.43 0.64 0.39 0.13 0.01 0.00 0.00 0.00 0.00 0.00
0.53 0.34 0.43 0.61 0.63 0.49 0.47 0.62 0.75 0.63 0.46 0.69 0.72 0.64 0.30 0.26 0.26 0.17 0.17 0.28 0.41 0.44 0.39 0.47 0.27 0.11 0.00 0.00 0.00 0.00 0.00 0.00
0.35 0.47 0.43 0.43 0.44 0.33 0.42 0.53 0.71 0.51 0.39 0.76 0.78 1.19 1.01 0.38 0.23 0.15 0.17 0.22 0.39 0.49 0.43 0.31 0.16 0.04 0.00 0.00 0.00 0.00 0.00 0.00
0.10 0.26 0.24 0.37 0.34 0.22 0.29 0.34 0.54 0.37 0.41 0.45 0.91 0.98 1.73 0.97 0.49 0.19 0.15 0.17 0.21 0.32 0.40 0.24 0.22 0.04 0.00 0.01 0.01 0.00 0.00 0.00
0.02 0.04 0.10 0.19 0.24 0.24 0.12 0.13 0.22 0.29 0.36 0.44 0.59 0.75 1.02 1.33 0.74 0.49 0.25 0.23 0.20 0.32 0.31 0.19 0.17 0.04 0.00 0.01 0.03 0.03 0.01 0.00
0.02 0.03 0.05 0.07 0.14 0.25 0.18 0.21 0.19 0.25 0.42 0.63 0.44 0.48 0.76 1.00 0.92 0.71 0.45 0.34 0.19 0.14 0.23 0.13 0.07 0.05 0.00 0.00 0.02 0.02 0.02 0.01
0.06 0.04 0.04 0.03 0.04 0.07 0.07 0.14 0.13 0.14 0.15 0.30 0.48 0.29 0.51 0.91 0.79 0.68 0.48 0.33 0.33 0.17 0.18 0.17 0.10 0.04 0.03 0.01 0.00 0.03 0.10 0.11
0.03 0.04 0.05 0.03 0.04 0.03 0.05 0.07 0.10 0.08 0.05 0.08 0.32 0.47 0.31 0.62 0.73 0.78 0.57 0.46 0.41 0.36 0.26 0.27 0.23 0.25 0.14 0.06 0.03 0.02 0.02 0.13
0.06 0.06 0.07 0.09 0.09 0.09 0.05 0.10 0.08 0.06 0.06 0.08 0.13 0.31 0.70 0.79 0.86 0.76 0.81 0.63 0.61 0.67 0.58 0.39 0.28 0.23 0.31 0.18 0.18 0.16 0.09 0.07
0.03 0.06 0.16 0.14 0.10 0.09 0.11 0.09 0.09 0.08 0.12 0.22 0.24 0.24 0.51 0.68 0.81 0.82 0.80 0.82 0.67 0.65 0.66 0.49 0.44 0.34 0.33 0.37 0.32 0.22 0.13 0.11
0.02 0.08 0.20 0.22 0.17 0.14 0.16 0.21 0.21 0.23 0.30 0.44 0.47 0.36 0.33 0.54 0.71 0.89 0.77 0.76 0.69 0.58 0.56 0.51 0.50 0.49 0.44 0.36 0.32 0.26 0.21 0.21

GFSFLT2_prec_precacc_087.txt.gz
Total_Precipitation_Accumulation
8.36 7.58 5.71 5.02 3.66 2.81 3.96 5.42 6.09 5.61 3.90 3.42 3.40 2.78 2.39 2.14 1.83 1.56 1.98 2.28 1.46 0.99 0.31 0.03 0.00 0.02 0.01 0.03 0.05 0.02 0.06 0.11
7.63 8.94 8.46 3.91 2.83 2.27 2.98 4.40 5.94 6.80 5.91 4.75 3.29 2.19 2.33 3.01 2.93 2.35 1.94 2.00 1.85 1.42 0.85 0.44 0.22 0.19 0.08 0.03 0.01 0.05 0.02 0.06
4.89 7.54 6.16 3.45 1.95 1.51 1.83 3.59 3.55 3.13 3.16 4.03 3.09 2.18 1.71 1.33 1.81 1.73 1.40 1.35 1.60 1.64 0.87 0.49 0.37 0.24 0.18 0.14 0.08 0.05 0.06 0.02
1.91 3.61 4.19 2.92 1.75 1.42 1.13 1.80 2.75 3.15 1.80 1.93 1.89 1.88 1.63 1.05 0.99 0.97 1.17 0.94 1.01 1.51 0.86 0.38 0.35 0.13 0.09 0.09 0.04 0.01 0.02 0.00
0.97 1.49 1.80 2.25 1.81 1.48 1.36 1.27 1.34 2.96 1.97 0.97 1.08 1.25 1.07 0.89 0.53 0.65 0.87 0.86 0.48 0.54 0.46 0.21 0.23 0.08 0.03 0.05 0.02 0.00 0.01 0.00
0.58 0.60 0.67 0.95 1.29 1.25 0.93 1.04 1.12 1.40 1.78 0.86 0.65 0.89 0.47 0.49 0.27 0.29 0.40 0.45 0.37 0.28 0.20 0.22 0.20 0.15 0.02 0.02 0.01 0.00 0.00 0.00
0.32 0.36 0.30 0.47 0.67 0.93 0.91 0.65 0.76 0.86 1.20 0.89 0.46 0.44 0.29 0.30 0.16 0.16 0.16 0.22 0.43 0.43 0.32 0.30 0.27 0.13 0.01 0.02 0.01 0.00 0.00 0.00
0.29 0.34 0.29 0.39 0.69 0.79 0.94 0.86 0.67 0.77 0.74 0.68 0.44 0.37 0.29 0.21 0.13 0.15 0.10 0.18 0.38 0.49 0.47 0.40 0.38 0.21 0.13 0.04 0.02 0.00 0.00 0.00
0.28 0.33 0.45 0.43 0.46 0.54 0.83 0.91 0.74 0.63 0.51 0.53 0.47 0.40 0.28 0.18 0.12 0.12 0.14 0.15 0.32 0.45 0.57 0.67 0.50 0.30 0.18 0.05 0.00 0.00 0.00 0.00
0.20 0.23 0.65 0.53 0.46 0.42 0.58 0.84 0.86 0.65 0.51 0.51 0.41 0.29 0.27 0.20 0.12 0.12 0.16 0.25 0.42 0.41 0.43 0.66 0.54 0.29 0.15 0.03 0.00 0.00 0.00 0.00
0.53 0.34 0.43 0.63 0.64 0.49 0.47 0.62 0.75 0.63 0.46 0.69 0.72 0.64 0.30 0.27 0.26 0.19 0.21 0.36 0.45 0.44 0.39 0.54 0.62 0.34 0.10 0.02 0.00 0.00 0.00 0.00
0.35 0.47 0.44 0.49 0.45 0.33 0.42 0.53 0.71 0.51 0.39 0.76 0.78 1.20 1.02 0.41 0.27 0.21 0.25 0.26 0.40 0.49 0.47 0.47 0.58 0.32 0.07 0.02 0.00 0.00 0.00 0.00
0.10 0.26 0.26 0.38 0.34 0.22 0.29 0.34 0.54 0.37 0.41 0.45 0.91 0.99 1.75 1.01 0.52 0.22 0.18 0.19 0.22 0.33 0.50 0.47 0.57 0.35 0.10 0.03 0.01 0.00 0.00 0.00
0.02 0.04 0.12 0.20 0.24 0.24 0.12 0.13 0.22 0.29 0.36 0.44 0.59 0.76 1.03 1.35 0.76 0.52 0.28 0.24 0.20 0.33 0.40 0.41 0.43 0.20 0.04 0.01 0.03 0.03 0.01 0.00
0.02 0.03 0.06 0.07 0.14 0.25 0.18 0.21 0.19 0.25 0.42 0.63 0.44 0.49 0.77 1.00 0.93 0.72 0.46 0.35 0.23 0.16 0.26 0.21 0.23 0.18 0.02 0.00 0.02 0.03 0.02 0.01
0.06 0.05 0.05 0.03 0.04 0.07 0.07 0.14 0.13 0.14 0.15 0.30 0.48 0.29 0.51 0.92 0.79 0.68 0.49 0.35 0.40 0.28 0.24 0.24 0.18 0.18 0.05 0.01 0.00 0.03 0.10 0.11
0.03 0.08 0.09 0.03 0.04 0.03 0.05 0.07 0.10 0.08 0.05 0.08 0.33 0.48 0.32 0.62 0.73 0.78 0.58 0.47 0.44 0.47 0.39 0.37 0.29 0.34 0.17 0.06 0.03 0.02 0.02 0.13
0.06 0.08 0.08 0.09 0.09 0.09 0.05 0.10 0.08 0.06 0.06 0.08 0.14 0.32 0.71 0.80 0.86 0.76 0.81 0.64 0.63 0.75 0.71 0.48 0.34 0.31 0.36 0.19 0.18 0.16 0.09 0.07
0.03 0.08 0.18 0.14 0.10 0.09 0.11 0.09 0.09 0.08 0.12 0.22 0.24 0.24 0.51 0.68 0.81 0.82 0.80 0.86 0.75 0.75 0.81 0.62 0.51 0.39 0.36 0.39 0.33 0.22 0.13 0.11
0.04 0.13 0.24 0.24 0.18 0.14 0.16 0.21 0.21 0.23 0.30 0.44 0.47 0.36 0.33 0.54 0.71 0.89 0.78 0.85 0.84 0.66 0.67 0.63 0.59 0.54 0.47 0.39 0.35 0.29 0.23 0.22

GFSFLT2_prec_precacc_093.txt.gz
Total_Precipitation_Accumulation
8.36 7.58 5.71 5.02 3.66 2.81 3.96 5.42 6.09 5.61 3.91 3.42 3.40 2.78 2.39 2.14 1.83 1.56 1.99 2.32 1.52 1.26 0.68 0.41 0.31 0.28 0.13 0.22 0.09 0.02 0.07 0.15
7.63 8.94 8.46 3.91 2.83 2.27 2.98 4.40 5.94 6.80 5.91 4.75 3.29 2.19 2.33 3.01 2.93 2.35 1.99 2.04 1.87 1.65 1.42 1.23 0.72 0.56 0.37 0.30 0.15 0.12 0.14 0.12
4.89 7.54 6.16 3.45 1.95 1.51 1.83 3.59 3.55 3.13 3.16 4.03 3.09 2.18 1.71 1.33 1.82 1.77 1.49 1.42 1.61 1.71 1.52 1.53 1.43 0.82 0.79 0.58 0.37 0.21 0.20 0.16
1.91 3.61 4.19 2.92 1.75 1.42 1.13 1.80 2.75 3.15 1.80 1.93 1.89 1.88 1.63 1.05 1.04 1.01 1.26 1.01 1.03 1.59 1.38 1.10 0.97 0.66 0.78 0.59 0.32 0.19 0.11 0.07
0.97 1.49 1.80 2.25 1.81 1.48 1.36 1.27 1.34 2.96 1.97 0.97 1.08 1.25 1.07 0.89 0.54 0.65 0.87 0.91 0.49 0.56 0.98 0.62 0.47 0.39 0.52 0.48 0.22 0.10 0.06 0.07
0.58 0.60 0.67 0.95 1.29 1.25 0.93 1.04 1.12 1.40 1.78 0.86 0.65 0.89 0.47 0.49 0.27 0.29 0.40 0.45 0.38 0.28 0.31 0.46 0.36 0.39 0.39 0.43 0.20 0.07 0.02 0.03
0.32 0.36 0.30 0.47 0.67 0.93 0.91 0.65 0.76 0.86 1.20 0.89 0.46 0.44 0.29 0.30 0.16 0.16 0.16 0.22 0.43 0.43 0.33 0.33 0.42 0.37 0.35 0.34 0.20 0.07 0.04 0.02
0.29 0.34 0.30 0.40 0.69 0.79 0.94 0.86 0.67 0.77 0.74 0.68 0.44 0.37 0.29 0.21 0.13 0.16 0.10 0.18 0.38 0.49 0.47 0.40 0.47 0.43 0.54 0.31 0.15 0.07 0.03 0.04
0.29 0.33 0.47 0.47 0.46 0.54 0.83 0.91 0.74 0.63 0.51 0.53 0.47 0.40 0.28 0.18 0.12 0.12 0.14 0.15 0.33 0.45 0.58 0.69 0.62 0.45 0.59 0.36 0.12 0.05 0.04 0.06
0.20 0.23 0.66 0.58 0.47 0.42 0.58 0.84 0.86 0.65 0.51 0.51 0.41 0.29 0.27 0.20 0.13 0.12 0.16 0.26 0.43 0.46 0.44 0.68 0.57 0.35 0.31 0.34 0.12 0.06 0.03 0.06
0.53 0.34 0.43 0.65 0.70 0.50 0.48 0.63 0.75 0.63 0.46 0.69 0.72 0.64 0.30 0.27 0.26 0.19 0.21 0.38 0.48 0.49 0.44 0.54 0.62 0.38 0.19 0.26 0.10 0.05 0.04 0.03
0.35 0.47 0.46 0.56 0.58 0.51 0.59 0.56 0.71 0.51 0.39 0.76 0.78 1.20 1.02 0.41 0.27 0.21 0.27 0.31 0.44 0.50 0.50 0.50 0.61 0.44 0.27 0.28 0.16 0.04 0.05 0.04
0.10 0.27 0.28 0.44 0.39 0.28 0.34 0.34 0.55 0.40 0.42 0.45 0.91 0.99 1.76 1.01 0.52 0.23 0.19 0.22 0.30 0.39 0.54 0.49 0.61 0.59 0.52 0.46 0.33 0.15 0.06 0.04
0.02 0.04 0.13 0.21 0.26 0.29 0.18 0.23 0.32 0.37 0.38 0.45 0.59 0.76 1.04 1.36 0.78 0.53 0.31 0.29 0.23 0.36 0.44 0.43 0.51 0.44 0.39 0.34 0.39 0.36 0.22 0.05
0.02 0.03 0.06 0.08 0.16 0.28 0.24 0.31 0.26 0.36 0.44 0.63 0.44 0.49 0.77 1.01 0.94 0.75 0.49 0.42 0.29 0.20 0.30 0.23 0.31 0.33 0.15 0.23 0.20 0.20 0.12 0.05
0.06 0.05 0.05 0.03 0.06 0.10 0.09 0.15 0.13 0.14 0.15 0.30 0.48 0.29 0.51 0.92 0.80 0.70 0.51 0.38 0.46 0.33 0.30 0.30 0.25 0.27 0.17 0.18 0.06 0.08 0.15 0.21
0.03 0.08 0.09 0.04 0.06 0.05 0.08 0.10 0.13 0.14 0.09 0.08 0.33 0.48 0.32 0.63 0.74 0.80 0.59 0.48 0.47 0.50 0.47 0.46 0.36 0.41 0.23 0.17 0.15 0.10 0.15 0.27
0.06 0.08 0.09 0.13 0.12 0.13 0.09 0.12 0.13 0.10 0.08 0.09 0.14 0.32 0.72 0.81 0.87 0.77 0.82 0.66 0.65 0.77 0.78 0.60 0.46 0.42 0.48 0.25 0.25 0.25 0.19 0.17
0.16 0.19 0.21 0.16 0.12 0.13 0.16 0.16 0.13 0.12 0.14 0.23 0.24 0.24 0.52 0.69 0.82 0.83 0.81 0.87 0.78 0.79 0.86 0.80 0.69 0.55 0.56 0.49 0.38 0.27 0.21 0.21
0.25 0.40 0.44 0.40 0.32 0.28 0.28 0.27 0.23 0.26 0.31 0.45 0.48 0.36 0.33 0.55 0.72 0.90 0.79 0.87 0.91 0.79 0.84 0.81 0.90 0.81 0.71 0.61 0.44 0.34 0.29 0.26

GFSFLT2_prec_precacc_099.txt.gz
Total_Precipitation_Accumulation
8.36 7.58 5.71 5.02 3.66 2.81 3.96 5.42 6.09 5.61 3.91 3.42 3.40 2.78 2.39 2.14 1.83 1.60 2.02 2.32 1.52 1.26 0.68 0.41 0.33 0.34 0.28 0.36 0.17 0.07 0.09 0.17
7.63 8.94 8.46 3.91 2.83 2.27 2.98 4.40 5.94 6.80 5.91 4.75 3.29 2.19 2.33 3.01 2.93 2.37 2.03 2.06 1.87 1.66 1.43 1.25 0.84 0.68 0.51 0.39 0.28 0.32 0.34 0.26
4.89 7.54 6.16 3.45 1.95 1.51 1.83 3.59 3.55 3.13 3.16 4.03 3.09 2.18 1.71 1.33 1.82 1.78 1.53 1.44 1.62 1.76 1.53 1.53 1.45 0.89 0.87 0.63 0.53 0.47 0.47 0.35
1.91 3.61 4.19 2.92 1.75 1.42 1.13 1.80 2.75 3.15 1.80 1.93 1.89 1.88 1.63 1.05 1.04 1.02 1.28 1.02 1.04 1.72 1.44 1.12 1.02 0.67 0.79 0.62 0.44 0.39 0.35 0.25
0.97 1.50 1.80 2.26 1.81 1.48 1.36 1.27 1.34 2.96 1.97 0.97 1.08 1.25 1.07 0.89 0.54 0.65 0.88 0.92 0.50 0.59 1.03 0.64 0.49 0.39 0.53 0.52 0.33 0.25 0.30 0.29
0.59 0.60 0.67 0.95 1.29 1.25 0.93 1.04 1.12 1.40 1.78 0.86 0.65 0.89 0.47 0.49 0.27 0.29 0.40 0.45 0.38 0.29 0.35 0.47 0.37 0.39 0.40 0.47 0.32 0.23 0.22 0.29
0.32 0.37 0.31 0.47 0.67 0.93 0.91 0.65 0.76 0.86 1.20 0.89 0.46 0.44 0.29 0.30 0.16 0.16 0.16 0.22 0.43 0.43 0.35 0.33 0.42 0.38 0.38 0.46 0.41 0.28 0.27 0.23
0.29 0.35 0.32 0.44 0.71 0.79 0.95 0.86 0.67 0.77 0.74 0.68 0.44 0.37 0.29 0.21 0.14 0.16 0.11 0.18 0.39 0.50 0.48 0.41 0.47 0.43 0.60 0.55 0.51 0.36 0.32 0.34
0.29 0.33 0.50 0.49 0.48 0.55 0.84 0.91 0.74 0.63 0.51 0.53 0.47 0.40 0.29 0.19 0.12 0.13 0.15 0.15 0.33 0.45 0.58 0.70 0.62 0.46 0.62 0.59 0.54 0.48 0.45 0.43
0.20 0.23 0.68 0.61 0.49 0.45 0.61 0.87 0.87 0.65 0.51 0.51 0.41 0.29 0.28 0.20 0.13 0.12 0.16 0.27 0.44 0.46 0.44 0.68 0.57 0.36 0.32 0.47 0.45 0.49 0.49 0.54
0.53 0.34 0.43 0.65 0.72 0.54 0.52 0.69 0.80 0.66 0.47 0.69 0.72 0.64 0.31 0.27 0.26 0.19 0.22 0.39 0.48 0.50 0.44 0.55 0.63 0.38 0.20 0.29 0.32 0.42 0.50 0.53
0.35 0.47 0.46 0.57 0.62 0.58 0.63 0.62 0.78 0.54 0.41 0.76 0.78 1.20 1.03 0.42 0.27 0.21 0.28 0.32 0.45 0.51 0.51 0.50 0.61 0.44 0.27 0.30 0.20 0.21 0.38 0.46
0.10 0.27 0.28 0.44 0.41 0.29 0.36 0.35 0.57 0.42 0.45 0.54 0.94 0.99 1.76 1.01 0.53 0.23 0.19 0.23 0.31 0.39 0.55 0.49 0.61 0.59 0.54 0.48 0.35 0.19 0.19 0.33
0.02 0.04 0.13 0.21 0.26 0.29 0.18 0.23 0.33 0.51 0.55 0.64 0.72 0.78 1.04 1.36 0.78 0.54 0.31 0.30 0.23 0.38 0.45 0.45 0.53 0.45 0.40 0.35 0.43 0.46 0.41 0.31
0.02 0.03 0.06 0.08 0.16 0.28 0.25 0.37 0.39 0.59 0.71 0.87 0.66 0.68 0.88 1.08 0.96 0.75 0.50 0.43 0.29 0.21 0.32 0.28 0.34 0.37 0.16 0.25 0.22 0.23 0.20 0.29
0.06 0.05 0.05 0.03 0.06 0.10 0.09 0.15 0.13 0.15 0.18 0.47 0.74 0.77 1.09 1.37 1.00 0.79 0.54 0.38 0.47 0.35 0.33 0.37 0.35 0.34 0.23 0.20 0.07 0.09 0.18 0.29
0.03 0.08 0.09 0.04 0.07 0.05 0.08 0.10 0.13 0.14 0.09 0.13 0.40 0.68 0.55 1.06 1.16 0.98 0.66 0.50 0.47 0.53 0.50 0.51 0.43 0.50 0.29 0.20 0.16 0.11 0.17 0.31
0.06 0.08 0.09 0.13 0.13 0.13 0.09 0.12 0.13 0.10 0.08 0.10 0.15 0.34 0.75 0.85 0.92 0.81 0.87 0.68 0.67 0.78 0.82 0.65 0.52 0.48 0.57 0.33 0.29 0.28 0.22 0.26
0.16 0.19 0.21 0.16 0.13 0.14 0.17 0.17 0.14 0.14 0.15 0.25 0.27 0.25 0.54 0.71 0.84 0.85 0.84 0.89 0.79 0.81 0.88 0.84 0.74 0.61 0.62 0.57 0.47 0.33 0.26 0.33
0.27 0.44 0.47 0.43 0.36 0.33 0.36 0.39 0.37 0.38 0.42 0.58 0.53 0.37 0.36 0.60 0.73 0.93 0.81 0.88 0.93 0.82 0.87 0.84 0.93 0.84 0.74 0.64 0.49 0.44 0.38 0.36